Terminal Aerodrome Forecast
Issued by NWS Blacksburg, VA

Home | Current Version | Previous Version | Text Only | Print | Product List | Glossary On
Versions: 1 2 3 4 5 6 7 8 9 10 11 12 13 14 15 16 17 18 19 20 21 22 23 24 25 26 27 28 29 30 31 32 33 34 35 36 37 38 39 40 41
000
FTUS41 KRNK 182330
TAFROA
TAF
KROA 182330Z 1900/1924 14007KT P6SM FEW060 BKN250
     FM190300 13006KT P6SM SCT080
     FM190800 10009KT P6SM OVC025
     FM191400 06012KT 4SM -RA BR OVC012
     FM191800 10015G22KT 2SM -RA OVC009
     FM192000 10014KT 1SM RA OVC007=

USA.gov is the U.S. government's official web portal to all federal, state and local government web resources and services.